FENGYUN 1C DEB, 31035

Orbit data source: Space-Track

FENGYUN 1C DEB, 31035 is space debris in SSO originally from a launch on Mon, 10 May 1999 UTC launched from the Taiyaun Space Center, China (TSC). Fengyun 1C debris stems from the Chinese weather satellite Fengyun-1C, which was intentionally destroyed by a Chinese anti-satellite missile in 2007. This event dramatically increased the amount of space debris, with thousands of trackable fragments posing hazards to satellites and human spaceflight. The Fengyun 1C debris cloud has become a focal point in discussions about space sustainability and the need for international regulations to prevent the creation of new debris.

Loading next visibility...
Identifier
31035, 1999-025BED
Orbit
SSO
Country
Flag of CNCN / PRC
Related business
Manufacturer
Unknown
Mission
Spacecraft
Bus & Motor
Unknown
Mass
Unknown
Launch date (UTC)
1999-05-10 (27 years ago)
Launch vehicle
Unknown
Launch site
Taiyaun Space Center, China (TSC)
Object type
Payload
Rocket body
Debris
Shape & HBR
Unknown shape, 0.1 m
Radar Cross Section
Small (<0.1 m²)

Expand to show TLE details & history
Last TLE update: 1 week ago

TLE from 1 week ago
0 FENGYUN 1C DEB
1 31035U 99025BED 26246.58016411  .00005227  00000-0  10455-2 0  9996
2 31035  98.6704  10.6849 0173292 140.7948 282.7627 14.53161387 10614
Epoch: 2026-09-03T13:55Z
TLE epoch observation values (Epoch: 2026-09-03T13:55:26.179Z)
Latitude
60.521°
Longitude
163.54582°
Altitude
700.51 km
Speed
7.525 km/s
True Right ascension
23h 40m 29s
True Declination
60° 22' 20"
Sunlit
Object was in daylight at epoch
Visualization orbit readout
Latitude
Unknown
Longitude
Unknown
Altitude
Unknown
Speed
Unknown
Apparent Right ascension
Unknown
Apparent Declination
Unknown
Sunlit
N/A
Visualization observer readout
Local Sidereal Time
16:51:54
Azimuth
Unknown
Elevation
Unknown
Doppler factor
Unknown
Orbital elements
Apogee altitude
835.327 km
Perigee altitude
589.579 km
Semi-major axis
7,090.59 km
Eccentricity
0.01733
Inclination
98.6704°
RAAN
10.6849°
Arg. of periapsis
140.7948°
True anomaly
280.81705°
Mean anomaly
282.7627°
Eccentric anomaly
281.79076°
Mean motion
3.63513 °/min
Orbital period
99.03 mins
BSTAR
0.0010455
Loading maneuver chart data...
Computing Atmospheric mass density...

Documentation

Showing up to 5 results
|